Date,TemperatureHighF,TemperatureAvgF,TemperatureLowF,DewpointHighF,DewpointAvgF,DewpointLowF,HumidityHigh,HumidityAvg,HumidityLow,PressureMaxIn,PressureMinIn,WindSpeedMaxMPH,WindSpeedAvgMPH,GustSpeedMaxMPH,PrecipitationSumIn
2013-8-1,69.6,64.9,61.3,57.1,54.2,51.8,78,69,58,30.04,29.94,28,8,30,0.00
2013-8-2,69.6,65.1,60.5,53.4,51.9,50.3,72,63,52,30.09,30.03,25,6,25,0.00
2013-8-3,84.7,71.5,59.6,58.8,55.0,51.9,82,59,35,30.08,29.91,16,4,16,0.00
2013-8-4,93.2,75.5,56.9,59.5,55.1,46.6,88,54,21,30.01,29.81,14,2,15,0.00
2013-8-5,90.3,76.7,60.2,61.5,58.2,52.2,84,56,31,29.94,29.80,22,4,22,0.00
2013-8-6,92.1,78.1,62.1,60.6,52.6,39.9,80,46,20,29.93,29.79,20,4,20,0.00
2013-8-7,87.8,76.6,62.0,55.4,52.0,45.1,72,44,27,29.94,29.81,28,6,28,0.00
2013-8-8,80.7,72.3,63.9,60.7,56.8,53.7,71,59,47,29.93,29.79,29,8,29,0.00
2013-8-9,83.0,72.6,65.3,64.0,59.6,56.6,87,65,41,29.92,29.70,24,5,24,0.12
2013-8-10,80.1,70.7,63.1,62.9,60.4,58.4,91,71,52,29.95,29.84,21,4,21,0.02
2013-8-11,80.3,71.4,65.0,60.0,56.7,52.6,74,61,40,30.01,29.89,19,6,22,0.00
2013-8-12,81.1,70.9,56.9,57.6,55.3,51.5,84,60,43,30.01,29.91,25,4,25,0.00
2013-8-13,88.6,73.9,61.0,56.8,52.4,44.2,77,51,23,30.05,29.85,15,4,19,0.00
2013-8-14,84.0,72.5,58.1,56.9,50.9,43.5,76,50,28,29.93,29.83,22,3,22,0.00
2013-8-15,84.9,74.9,66.1,62.2,57.7,51.4,68,56,37,29.91,29.84,21,4,21,0.00
2013-8-16,84.0,73.7,66.0,66.6,62.3,59.3,90,69,45,29.97,29.88,19,2,19,0.11
2013-8-17,84.0,74.4,66.0,62.6,55.9,52.9,74,54,36,30.02,29.93,18,5,27,0.00
2013-8-18,84.3,73.6,63.4,58.3,55.7,49.0,80,56,32,30.07,29.95,20,5,20,0.00
2013-8-19,84.3,73.7,63.7,57.4,54.1,48.0,79,53,31,30.03,29.93,23,6,23,0.00
2013-8-20,83.4,71.7,61.0,55.5,53.1,48.4,78,55,32,30.07,29.89,26,6,26,0.00
2013-8-21,91.0,71.3,53.5,60.1,49.4,39.1,83,51,18,30.02,29.83,11,0,11,0.00
2013-8-22,79.9,69.6,56.3,59.0,53.8,48.1,76,58,45,29.90,29.78,16,1,16,0.00
2013-8-23,74.9,69.8,65.5,61.4,57.0,53.1,84,65,49,29.87,29.80,26,6,26,0.07
2013-8-24,77.6,69.3,62.6,56.3,53.4,49.3,77,59,39,29.85,29.78,22,5,22,0.00
2013-8-25,70.1,63.7,59.2,60.1,55.2,51.4,91,74,57,29.90,29.84,20,1,20,0.13
2013-8-26,78.6,66.1,56.5,60.3,55.0,48.9,93,71,40,29.94,29.86,17,2,17,0.00
2013-8-27,86.7,70.2,53.2,59.0,53.2,49.5,88,59,30,29.96,29.70,18,2,21,0.00
2013-8-28,84.0,74.5,65.8,60.2,58.2,55.5,77,58,42,29.85,29.76,19,5,20,0.00
2013-8-29,80.1,71.8,65.5,64.3,60.2,57.5,88,68,47,30.02,29.80,21,4,21,0.12
2013-8-30,82.0,72.5,64.3,60.9,57.9,53.7,79,62,40,30.12,29.97,19,4,19,0.00
2013-8-31,92.7,72.7,56.0,59.6,53.7,48.3,88,57,23,30.02,29.76,12,1,12,0.00